{"data":{"norad_id":68144,"intl_designator":"2026-049C","name":"STARLINK-37020","alt_names":[],"object_type":"PAYLOAD","status":"ACTIVE","operator":null,"country":"US","launch_date":"2026-03-13","launch_site_code":"AFWTR","launch_vehicle":null,"mission":null,"orbit_class":"UNKNOWN","rcs_meters":null,"size_class":null,"mass_kg":null,"dimensions":null,"purposes":["comms"],"wikipedia_slug":null,"has_3d_model":false,"image_url":null,"decayed_at":null,"tle_current":{"epoch":"2026-09-19T18:51:28.416384Z","epoch_age_seconds":117864,"freshness":"FRESH","line1":"1 68144U 26049C   26262.78574556  .00022695  00000+0  70341-3 0  9990","line2":"2 68144  97.2848 282.7848 0001129  99.7120 260.4250 15.33434507 29390","mean_motion":15.33434507,"eccentricity":0.0001129,"inclination_deg":97.2848,"raan_deg":282.7848,"arg_perigee_deg":99.712,"mean_anomaly_deg":260.425,"bstar":0.00070341,"rev_number":2939,"period_min":93.906847239091,"perigee_km":464.80173942527,"apogee_km":466.34704945814,"semimajor_km":6843.7113944417,"source":"CELESTRAK","updated_at":"2026-09-20T09:00:43.791422Z"}}}